Regional Weather Roundup
Issued by NWS

Home | Current Version | Previous Version | Text Only | Print | Product List | Glossary On
Versions: 1 2 3 4 5 6 7 8 9 10 11 12 13 14 15 16 17 18 19 20 21 22 23 24 25 26 27 28 29 30 31 32 33 34 35 36 37 38 39 40 41 42 43 44 45 46 47 48 49 50
000
ASUS43 KIND 040309
RWRIN

WEATHER ROUNDUP FOR INDIANA
NATIONAL WEATHER SERVICE INDIANAPOLIS IN
1100 PM EDT THU SEP 03 2015

NOTE: "FAIR" INDICATES FEW OR NO CLOUDS BELOW 12,000 FEET WITH NO
SIGNIFICANT WEATHER AND/OR OBSTRUCTIONS TO VISIBILITY.

* - STATION DOES NOT REPORT WEATHER SUCH AS PRECIPITATION OR FOG.

+ - STATION NOT QUALITY CONTROLLED BY THE NATIONAL WEATHER SERVICE.
    USE DATA WITH CAUTION...ESPECIALLY DEWPOINT AND RELATIVE
    HUMIDITY OBSERVATIONS.

INZ001>003-010>013-019-020-040400-
NORTHWEST INDIANA

CITY           SKY/WX    TMP DP  RH WIND       PRES   REMARKS
GARY /AIRPORT/ CLEAR     73  68  83 N6        29.94R
KNOX *+        CLEAR     72  70  94 SW3       29.91S
LA PORTE +     CLEAR     74  74 100 N6        29.94R
MICHIGAN CITY+ CLEAR     70  68  94 NE3       29.94S
MONTICELLO +   CLEAR     75  69  81 S3        29.93R
RENSSELAER +   CLEAR     73  72  94 SW5       29.92F
VALPARAISO     CLEAR     74  70  87 N6        29.93R

$$

LMZ046-743>745-040400-
SOUTHERN LAKE MICHIGAN

STATION/POSITION TIME  TEMP    WIND        PRES    WAVE
                       AIR SEA DIR/SP/G            HT
                 (UTC) (F)     (DEG/KT/KT) (MB)    (FT)
BURNS HARBOR     0200   73      50/ 12/ 15 1013.5R
MICHIGAN CITY    0200   72      10/ 13/ 14   N/A
5NW MICH CITY    0300   73 73   50/ 10/ 14   N/A     2

$$

INZ004-005-014>016-021>024-040400-
NORTH CENTRAL INDIANA

CITY           SKY/WX    TMP DP  RH WIND       PRES   REMARKS
GOSHEN         PTCLDY    75  69  81 SW5       29.93R
LOGANSPORT +   CLEAR     70  63  78 S5        29.94S
PERU/GRISSOM   CLEAR     73  67  82 S5        29.94R
ROCHESTER +    CLEAR     79  70  73 SW5       29.94R
SOUTH BEND     PTCLDY    73  69  87 N8        29.94R
WARSAW +       CLEAR     77  68  73 CALM      29.93R

$$

INZ006>009-017-018-025>027-040400-
NORTHEAST INDIANA

CITY           SKY/WX    TMP DP  RH WIND       PRES   REMARKS
ANGOLA *+      MOCLDY    75  70  83 CALM      29.93S
AUBURN +       CLEAR     77  64  65 SW5       29.95R
FORT WAYNE     PTCLDY    73  68  84 S6        29.95R
HUNTINGTON +   CLEAR     76  65  69 S5        29.94S

$$

INZ028-029-035-036-043>045-051>053-040400-
WEST CENTRAL INDIANA

CITY           SKY/WX    TMP DP  RH WIND       PRES   REMARKS
CRAWFORDSVL +  CLEAR     70  65  84 CALM      29.96S
GREENCASTLE +  CLEAR     72  64  78 CALM      29.98R
LAFAYETTE      CLEAR     74  69  85 CALM      29.93S
TERRE HAUTE    CLEAR     73  68  84 CALM      29.96R

$$

INZ030>032-037>040-046>048-054>057-064-065-040400-
CENTRAL INDIANA

CITY           SKY/WX    TMP DP  RH WIND       PRES   REMARKS
FISHERS *+     CLEAR     72  70  94 CALM      29.96R
FRANKFORT +    CLEAR     73  73 100 CALM      29.97S
GREENWOOD *+   CLEAR     75  64  69 CALM      29.97S
INDIANAPOLIS   CLEAR     76  67  73 SW7       29.96R
-EAGLE CREEK   CLEAR     77  68  73 CALM      29.96R
KOKOMO *+      PTCLDY    72  64  78 SW6       29.95S
MARION +       CLEAR     71  62  71 SW5       29.96S
MT COMFORT *+  CLEAR     72  66  83 CALM      29.97S
SHELBYVILLE    CLEAR     73  67  81 S3        29.96R
ZIONSVILLE +   CLEAR     70  66  86 SW3       29.97S

$$

INZ033-034-041-042-049-050-058-059-040400-
EAST CENTRAL INDIANA

CITY           SKY/WX    TMP DP  RH WIND       PRES   REMARKS
MUNCIE         CLEAR     76  67  73 SW5       29.96R

$$

INZ060-061-067>069-081>083-085>088-040400-
SOUTHWEST INDIANA

CITY           SKY/WX    TMP DP  RH WIND       PRES   REMARKS
EVANSVILLE     CLEAR     74  69  85 SW3       29.97R
HUNTINGBURG *+ CLEAR     73  66  78 CALM      29.97S
WASHINGTON +   CLEAR     73  68  83 CALM      29.96R

$$

INZ062-063-066-070>080-084-089>092-040400-
SOUTH CENTRAL AND SOUTHEAST INDIANA

CITY           SKY/WX    TMP DP  RH WIND       PRES   REMARKS
BLOOMINGTON    CLEAR     71  68  90 CALM      29.98R
MADISON *+     CLEAR     72  68  88 CALM      30.00S
NORTH VERNON + CLEAR     73  73 100 CALM      29.98R
SEYMOUR +      CLEAR     72  70  94 CALM      29.97R

$$



USA.gov is the U.S. government's official web portal to all federal, state and local government web resources and services.